Погода в Оссоре

Россия / Камчатский край     59°15′05″N   163°04′28″E
темп.,
°C
ветер,
м/с
пор.,
м/с
влажн.,
%
обл.,
%
осадки,
мм/ч
давл.,
гПа
погр.,
м
4 марта, чт
чт400:00−16ссз132293100 13.3 983568
03:00−15зсз6890100 1.9 977204
06:00−17с1184100 1.9 97821
09:00−17юз117898 0.0 98221
12:00−16юз357199 0.0 984321
15:00−15юз4867100 0.0 9851069
18:00−19юз8971100 0.0 987172
21:00−21юз8107195 0.0 987169
5 марта, пт
пт500:00−23юз687452 0.0 98995
03:00−24ююз68764 0.0 989103
06:00−26юз57752 0.0 99190
09:00−26зюз56750 0.0 99278
12:00−22зюз510730 0.0 995642
15:00−20зюз518660 0.0 9971323
18:00−24юз45723 0.0 100062
21:00−28сз22720 0.0 100219
6 марта, сб
сб600:00−29сз23730 0.0 100319
03:00−30ссз23740 0.0 100319
06:00−31сз22756 0.0 100319
09:00−30ссз23730 0.0 100319
12:00−25с227513 0.0 1002104
15:00−22ссз236998 0.0 1000184
18:00−27ссв117371 0.0 100020
21:00−29ссз22690 0.0 100119
7 марта, вс
вс700:00−30ссз22700 0.0 100119
03:00−31ссз22670 0.0 100019
06:00−31сз33670 0.0 99919
09:00−30сз34700 0.0 99922
12:00−26зсз22730 0.0 999130
15:00−23з126462 0.0 998486
18:00−26ссз357280 0.0 998114
21:00−29сз457219 0.0 99853
8 марта, пн
пн800:00−31сз337010 0.0 99927
03:00−32сз337115 0.0 99919
06:00−32зсз337216 0.0 99919
09:00−31зсз237178 0.0 99919
12:00−26з227385 0.0 999135
15:00−24зюз236789 0.0 999365
18:00−26зюз237494 0.0 100030
21:00−27з3372100 0.0 100227